Melbourne, FL

8:23 AM EDT on August 19, 2017 (GMT -0400)
Melbourne International

Weather History for KMLB - November, 2012

Change the Weather History Date:

Friday, November 16, 2012

  Actual Average Record
Temperature  
Mean Temperature 65 °F 69 °F  
Max Temperature 73 °F 78 °F 85 °F (1998)
Min Temperature 57 °F 59 °F 30 °F (1940)
Degree Days  
Heating Degree Days 0 1  
Month to date heating degree days 19 14  
Since 1 July heating degree days 38 18  
Cooling Degree Days 0 5  
Month to date cooling degree days 51 99  
Year to date cooling degree days 3382 3136  
Growing Degree Days 14 (Base 50)    
Moisture  
Dew Point 60 °F    
Average Humidity 84    
Maximum Humidity 100    
Minimum Humidity 68    
Precipitation  
Precipitation 0.14 in 0.09 in 3.28 in (1951)
Month to date precipitation 0.49 1.75  
Year to date precipitation 37.40 48.30  
Sea Level Pressure  
Sea Level Pressure 30.11 in    
Wind  
Wind Speed 12 mph (NNW)    
Max Wind Speed 22 mph    
Max Gust Speed 26 mph    
Visibility 8 miles    
Events Rain , Thunderstorm    
T = Trace of Precipitation, MM = Missing Value Source: NWS Daily Summary

Daily Weather History Graph

Daily Weather History Graph

Search for Another Location

Airport or City:

Trip Planner

Search our weather history database for the weather conditions in past years. The results will help you decide how hot, cold, wet, or windy it might be!

Date:

Astronomy

Nov. 16, 2012 Rise Set
Actual Time 6:45 AM EST 5:29 PM EST
Civil Twilight 6:20 AM EST 5:54 PM EST
Nautical Twilight 5:52 AM EST 6:22 PM EST
Astronomical Twilight 5:24 AM EST 6:50 PM EST
Moon 9:34 AM EST (11/16) 8:30 PM EST (11/16)
Length of Visible Light 11h 33m
Length of Day
10h 43m
Waxing Crescent, 11% of the Moon is Illuminated
Nov 16
Waxing Crescent
Nov 20
First Quarter
Nov 28
Full
Dec 6
Last Quarter
Dec 13
New

Hourly Weather History & Observations

Time (EST) Temp. Dew Point Humidity Pressure Visibility Wind Dir Wind Speed Gust Speed Precip Events Conditions
12:53 AM 61.0 °F 60.1 °F 97% 30.11 in 7.0 mi NNW 10.4 mph - N/A   Overcast
1:53 AM 61.0 °F 60.1 °F 97% 30.10 in 8.0 mi NW 6.9 mph - N/A   Overcast
2:53 AM 59.0 °F 59.0 °F 100% 30.10 in 8.0 mi NW 6.9 mph - N/A   Overcast
3:43 AM 57.2 °F 57.2 °F 100% 30.11 in 7.0 mi NW 8.1 mph - N/A   Scattered Clouds
3:53 AM 57.9 °F 57.9 °F 100% 30.12 in 7.0 mi NW 8.1 mph - N/A   Partly Cloudy
4:21 AM 59.0 °F 57.2 °F 94% 30.11 in 6.0 mi NW 6.9 mph - N/A   Mostly Cloudy
4:48 AM 57.2 °F 57.2 °F 100% 30.10 in 7.0 mi NW 5.8 mph - N/A   Scattered Clouds
4:53 AM 57.9 °F 57.0 °F 97% 30.10 in 6.0 mi NW 6.9 mph - N/A   Partly Cloudy
5:53 AM 57.0 °F 57.0 °F 100% 30.10 in 6.0 mi NW 8.1 mph - N/A   Mostly Cloudy
6:28 AM 57.2 °F 57.2 °F 100% 30.11 in 5.0 mi NW 6.9 mph - N/A   Mostly Cloudy
6:53 AM 59.0 °F 57.9 °F 96% 30.11 in 4.0 mi NNW 6.9 mph - N/A   Overcast
7:53 AM 61.0 °F 60.1 °F 97% 30.13 in 6.0 mi NNW 8.1 mph - N/A   Mostly Cloudy
8:00 AM 60.8 °F 60.8 °F 100% 30.13 in 6.0 mi NW 8.1 mph - N/A   Mostly Cloudy
8:28 AM 62.6 °F 60.8 °F 94% 30.14 in 7.0 mi NNW 6.9 mph - N/A   Scattered Clouds
8:53 AM 64.9 °F 61.0 °F 87% 30.14 in 9.0 mi North 9.2 mph - N/A   Partly Cloudy
9:53 AM 69.1 °F 61.0 °F 75% 30.14 in 10.0 mi North 11.5 mph - N/A   Clear
10:53 AM 71.1 °F 61.0 °F 70% 30.13 in 10.0 mi North 16.1 mph - N/A   Partly Cloudy
11:53 AM 72.0 °F 61.0 °F 68% 30.12 in 10.0 mi North 20.7 mph 25.3 mph N/A   Clear
12:53 PM 72.0 °F 61.0 °F 68% 30.10 in 10.0 mi North 17.3 mph - N/A   Partly Cloudy
1:53 PM 71.1 °F 60.1 °F 68% 30.10 in 10.0 mi North 18.4 mph 26.5 mph N/A   Scattered Clouds
2:53 PM 70.0 °F 60.1 °F 71% 30.08 in 10.0 mi North 17.3 mph 25.3 mph N/A   Clear
3:53 PM 68.0 °F 60.1 °F 76% 30.08 in 10.0 mi North 17.3 mph - N/A   Clear
4:53 PM 66.9 °F 60.1 °F 79% 30.09 in 10.0 mi NNW 12.7 mph - N/A   Clear
5:29 PM 66.2 °F 60.8 °F 83% 30.09 in 10.0 mi NNW 10.4 mph - N/A   Mostly Cloudy
5:53 PM 64.9 °F 60.1 °F 84% 30.10 in 10.0 mi NNW 12.7 mph - N/A   Mostly Cloudy
6:53 PM 64.9 °F 61.0 °F 87% 30.10 in 10.0 mi North 13.8 mph 23.0 mph N/A   Clear
7:53 PM 64.4 °F 60.8 °F 88% 30.09 in 10.0 mi NNW 15.0 mph - N/A   Clear
8:53 PM 63.0 °F 61.0 °F 93% 30.11 in 10.0 mi NNW 11.5 mph - N/A   Scattered Clouds
9:53 PM 64.0 °F 61.0 °F 90% 30.11 in 10.0 mi NNW 6.9 mph - N/A   Mostly Cloudy
10:29 PM 62.6 °F 60.8 °F 94% 30.11 in 2.5 mi West 3.5 mph - 0.04 in Rain , Thunderstorm Light Thunderstorms and Rain
10:31 PM 62.6 °F 60.8 °F 94% 30.11 in 1.8 mi West 4.6 mph - 0.05 in Rain , Thunderstorm Heavy Thunderstorms and Rain
10:39 PM 62.6 °F 60.8 °F 94% 30.12 in 2.0 mi Calm Calm - 0.07 in Rain , Thunderstorm Thunderstorms and Rain
10:53 PM 63.0 °F 61.0 °F 93% 30.11 in 2.0 mi North 6.9 mph - 0.13 in Rain , Thunderstorm Heavy Thunderstorms and Rain
11:04 PM 62.6 °F 60.8 °F 94% 30.12 in 7.0 mi NNW 3.5 mph - 0.01 in Rain Light Rain
11:41 PM 62.6 °F 62.6 °F 100% 30.11 in 7.0 mi NNW 5.8 mph - 0.01 in   Mostly Cloudy
11:53 PM 63.0 °F 62.1 °F 97% 30.11 in 7.0 mi NNW 5.8 mph - 0.01 in   Overcast